Regional Weather Roundup
Issued by NWS

Home | Current Version | Previous Version | Graphics & Text | Print | Product List | Glossary On
Versions: 1 2 3 4 5 6 7 8 9 10 11 12 13 14 15 16 17 18 19 20 21 22 23 24 25 26 27 28 29 30 31 32 33 34 35 36 37 38 39 40 41 42 43 44 45 46 47 48 49 50
000
ASUS44 KMEG 141800
RWRTN
TENNESSEE HOURLY STATE WEATHER ROUNDUP
NATIONAL WEATHER SERVICE MEMPHIS TN
100 PM CDT SUN SEP 14 2014

TNZ002-004-019-021-049-052-054-088>092-141900-
WEST TENNESSEE

CITY           SKY/WX    TMP DP  RH WIND       PRES   REMARKS
MEMPHIS INTL   MOSUNNY   74  55  51 VRB3      30.23F
NWS MEMPHIS      N/A     73 N/A N/A MISG        N/A
JACKSON        MOSUNNY   72  56  57 N8        30.24F
DYERSBURG      MOSUNNY   72  48  43 E6        30.26F
PARIS          SUNNY     70  50  49 CALM      30.25F
$$

TNZ008-025-027-028-033-062-065-066-141900-
NORTH MIDDLE TENNESSEE

CITY           SKY/WX    TMP DP  RH WIND       PRES   REMARKS
NASHVILLE      PTSUNNY   74  57  55 N3        30.23F
CLARKSVILLE    SUNNY     72  53  51 VRB3      30.23F
COOKEVILLE     PTSUNNY   72  63  73 NE5       30.23S
CROSSVILLE     PTSUNNY   73  59  61 VRB3      30.24S
$$

TNZ061-075-076-078-094-096-097-141900-
SOUTH MIDDLE TENNESSEE

CITY           SKY/WX    TMP DP  RH WIND       PRES   REMARKS
SHELBYVILLE    SUNNY     75  61  60 CALM      30.23S
$$

TNZ017-018-042-046-047-141900-
NORTHEAST TENNESSEE

CITY           SKY/WX    TMP DP  RH WIND       PRES   REMARKS
TRI CITIES     CLOUDY    72  60  66 CALM      30.22F
$$

TNZ012-013-036-069-073-074-141900-
CENTRAL EAST TENNESSEE

CITY           SKY/WX    TMP DP  RH WIND       PRES   REMARKS
KNOXVILLE      CLOUDY    73  61  65 N5        30.20S
OAK RIDGE      CLOUDY    72  59  63 CALM      30.22F
$$

TNZ083-085-099-141900-
SOUTHEAST TENNESSEE

CITY           SKY/WX    TMP DP  RH WIND       PRES   REMARKS
CHATTANOOGA    CLOUDY    74  62  66 CALM      30.20F
$$

SKY/WX REPORTED AS FAIR MEANS FEW OR NO CLOUDS BELOW
12 THOUSAND FEET.



USA.gov is the U.S. government's official web portal to all federal, state and local government web resources and services.